ROST FLYPLASS current weather conditions

sailwx.info

Wind from 010 at 22 knots

Air temperature 1.0° C
Visibility: greater than 5.4 NM
Dewpoint -5.0° C

Last reported at 2016-Feb-12 18:50 UTC.
Time now 2016-Feb-12 22:25 UTC

Location: N 67°31' E 012°06'.
View on Google Maps.

See reports from other nearby stations

  
Tides and Currents Weather Stations Pressure Air Temp Water Temp Dewpoint Dewpoint Depression Visibility Wind Speed Wind Dir Waves Ship Positions
date/time (UTC)wind fromknots sea level pressurealtimeterstation pressurevisibilityair tempwater tempwave heightnotes
2016-Feb-12 18:50 010 22 5.4 1.0
2016-Feb-12 18:20 010 25 5.4-0.0
2016-Feb-12 17:50 010 24 5.4-0.0
2016-Feb-12 16:50 020 23 5.4 1.0
2016-Feb-12 16:20 040 17 5.4-0.0
2016-Feb-12 07:20 050 14 5.4-1.0 Light snow showers.
2016-Feb-12 06:50 030 19 5.4-1.0
2016-Feb-12 06:20 020 14 5.4-1.0
2016-Feb-11 18:50 360 18 5.4-1.0
2016-Feb-11 18:20 350 23 5.4-0.0
2016-Feb-11 17:50 350 20 5.4-0.0
2016-Feb-11 17:20 350 25 5.4-0.0
2016-Feb-11 16:50 340 23 5.4-0.0
2016-Feb-11 14:50 340 25 gusting 35 5.4-1.0 Light snow showers.
2016-Feb-11 13:50 360 20 5.4-0.0
2016-Feb-11 11:50 340 27 5.4-0.0
2016-Feb-11 09:50 350 27 5.4-1.0 Light snow showers.
2016-Feb-11 06:50 330 29 5.4-0.0
2016-Feb-11 06:20 330 27 5.4-0.0
2016-Feb-11 05:50 330 31 5.4-0.0